カタログに戻る

SL-8 R/B

運用中PO
NORAD 23093·ROCKET BODY·🇷🇺 Russia

打ち上げ Apr 26, 1994 から Plesetsk Cosmodrome

Loading…

次のパス (今後24時間)

TLE

最新Source: Space-Track

元期: Sep 14, 2026, 14:11 UTC

1 23093U 94024B   26257.59162839  .00000114  00000-0  98251-4 0  9996
2 23093  82.9439 122.1173 0008756 257.3628 102.6551 13.78266315 96186

AllMySatでSL-8 R/Bをリアルタイム追跡

Download on the App Store